PRIVATE WETTERSTATION BILLIGHEIM-ALLFELD                       ZURCK
Wetterdaten: Freitag, 02.05.2014
Datum Zeit Temp. A. Temp. A. min Temp. A. max Feuchte A. Luftdruck Regen Wind Richtung Richtung Sonnenschein ET Solar Taupunkt Windchill Windben Empfang
02.05.2014 00:00 10,4 C 10,4 C 10,4 C 87 % 1009,8 hPa 0,0 l/m 0,0 km/h (0 Bft) N 0 0 min 0,000 mm 0 W/m 8,3 C 10,4 C 0,0 km/h (0 Bft) 100 %
02.05.2014 00:10 10,4 C 10,4 C 10,4 C 87 % 1009,9 hPa 0,0 l/m 0,0 km/h (0 Bft) N 0 0 min 0,000 mm 0 W/m 8,3 C 10,4 C 0,0 km/h (0 Bft) 80 %
02.05.2014 00:20 10,4 C 10,4 C 10,4 C 87 % 1010,0 hPa 0,0 l/m 0,0 km/h (0 Bft) N 0 0 min 0,000 mm 0 W/m 8,3 C 10,4 C 0,0 km/h (0 Bft) 100 %
02.05.2014 00:30 10,4 C 10,4 C 10,4 C 87 % 1010,1 hPa 0,0 l/m 0,0 km/h (0 Bft) N 0 0 min 0,000 mm 0 W/m 8,3 C 10,4 C 0,0 km/h (0 Bft) 100 %
02.05.2014 00:40 10,4 C 10,4 C 10,4 C 87 % 1010,1 hPa 0,0 l/m 0,0 km/h (0 Bft) N 0 0 min 0,000 mm 0 W/m 8,3 C 10,4 C 0,0 km/h (0 Bft) 100 %
02.05.2014 00:50 10,4 C 10,4 C 10,4 C 88 % 1010,1 hPa 0,0 l/m 0,0 km/h (0 Bft) N 0 0 min 0,000 mm 0 W/m 8,5 C 10,4 C 0,0 km/h (0 Bft) 100 %
02.05.2014 01:00 10,4 C 10,4 C 10,4 C 88 % 1010,1 hPa 0,0 l/m 0,0 km/h (0 Bft) N 0 0 min 0,000 mm 0 W/m 8,5 C 10,4 C 0,0 km/h (0 Bft) 100 %
02.05.2014 01:10 10,4 C 10,4 C 10,4 C 88 % 1010,0 hPa 0,0 l/m 0,0 km/h (0 Bft) N 0 0 min 0,000 mm 0 W/m 8,5 C 10,4 C 0,0 km/h (0 Bft) 100 %
02.05.2014 01:20 10,4 C 10,4 C 10,4 C 87 % 1009,9 hPa 0,0 l/m 0,0 km/h (0 Bft) N 0 0 min 0,000 mm 0 W/m 8,3 C 10,4 C 0,0 km/h (0 Bft) 100 %
02.05.2014 01:30 10,4 C 10,4 C 10,4 C 87 % 1009,8 hPa 0,0 l/m 0,0 km/h (0 Bft) S-SW 202 0 min 0,000 mm 0 W/m 8,3 C 10,4 C 1,6 km/h (1 Bft) 98 %
02.05.2014 01:40 10,4 C 10,4 C 10,4 C 87 % 1009,8 hPa 0,0 l/m 0,0 km/h (0 Bft) N 0 0 min 0,000 mm 0 W/m 8,3 C 10,4 C 1,6 km/h (1 Bft) 92 %
02.05.2014 01:50 10,4 C 10,4 C 10,4 C 87 % 1009,8 hPa 0,0 l/m 0,0 km/h (0 Bft) N 0 0 min 0,000 mm 0 W/m 8,3 C 10,4 C 0,0 km/h (0 Bft) 100 %
02.05.2014 02:00 10,4 C 10,4 C 10,4 C 87 % 1009,8 hPa 0,0 l/m 0,0 km/h (0 Bft) S-SW 202 0 min 0,000 mm 0 W/m 8,3 C 10,4 C 1,6 km/h (1 Bft) 99 %
02.05.2014 02:10 10,4 C 10,4 C 10,4 C 87 % 1009,8 hPa 0,0 l/m 0,0 km/h (0 Bft) N 0 0 min 0,000 mm 0 W/m 8,3 C 10,4 C 0,0 km/h (0 Bft) 100 %
02.05.2014 02:20 10,4 C 10,4 C 10,4 C 87 % 1009,8 hPa 0,0 l/m 0,0 km/h (0 Bft) N 0 0 min 0,000 mm 0 W/m 8,3 C 10,4 C 0,0 km/h (0 Bft) 99 %
02.05.2014 02:30 10,4 C 10,4 C 10,4 C 87 % 1009,8 hPa 0,0 l/m 0,0 km/h (0 Bft) N 0 0 min 0,000 mm 0 W/m 8,3 C 10,4 C 0,0 km/h (0 Bft) 100 %
02.05.2014 02:40 10,4 C 10,4 C 10,4 C 87 % 1009,7 hPa 0,0 l/m 0,0 km/h (0 Bft) N 0 0 min 0,000 mm 0 W/m 8,3 C 10,4 C 0,0 km/h (0 Bft) 100 %
02.05.2014 02:50 10,4 C 10,4 C 10,4 C 87 % 1009,6 hPa 0,0 l/m 0,0 km/h (0 Bft) N 0 0 min 0,000 mm 0 W/m 8,3 C 10,4 C 0,0 km/h (0 Bft) 100 %
02.05.2014 03:00 10,3 C 10,3 C 10,4 C 87 % 1009,5 hPa 0,0 l/m 0,0 km/h (0 Bft) N 0 0 min 0,000 mm 0 W/m 8,2 C 10,3 C 0,0 km/h (0 Bft) 100 %
02.05.2014 03:10 10,3 C 10,3 C 10,3 C 87 % 1009,5 hPa 0,0 l/m 0,0 km/h (0 Bft) N 0 0 min 0,000 mm 0 W/m 8,2 C 10,3 C 0,0 km/h (0 Bft) 99 %
02.05.2014 03:20 10,3 C 10,3 C 10,3 C 87 % 1009,5 hPa 0,0 l/m 0,0 km/h (0 Bft) N 0 0 min 0,000 mm 0 W/m 8,2 C 10,3 C 0,0 km/h (0 Bft) 100 %
02.05.2014 03:30 10,3 C 10,3 C 10,3 C 87 % 1009,4 hPa 0,0 l/m 0,0 km/h (0 Bft) N 0 0 min 0,000 mm 0 W/m 8,2 C 10,3 C 0,0 km/h (0 Bft) 100 %
02.05.2014 03:40 10,3 C 10,3 C 10,3 C 87 % 1009,4 hPa 0,0 l/m 0,0 km/h (0 Bft) N 0 0 min 0,000 mm 0 W/m 8,2 C 10,3 C 0,0 km/h (0 Bft) 100 %
02.05.2014 03:50 10,3 C 10,3 C 10,3 C 88 % 1009,4 hPa 0,0 l/m 0,0 km/h (0 Bft) N 0 0 min 0,000 mm 0 W/m 8,4 C 10,3 C 0,0 km/h (0 Bft) 100 %
02.05.2014 04:00 10,3 C 10,3 C 10,3 C 88 % 1009,4 hPa 0,0 l/m 0,0 km/h (0 Bft) N 0 0 min 0,000 mm 0 W/m 8,4 C 10,3 C 0,0 km/h (0 Bft) 100 %
02.05.2014 04:10 10,3 C 10,3 C 10,3 C 88 % 1009,3 hPa 0,0 l/m 0,0 km/h (0 Bft) N 0 0 min 0,000 mm 0 W/m 8,4 C 10,3 C 0,0 km/h (0 Bft) 100 %
02.05.2014 04:20 10,3 C 10,3 C 10,3 C 88 % 1009,3 hPa 0,0 l/m 0,0 km/h (0 Bft) N 0 0 min 0,000 mm 0 W/m 8,4 C 10,3 C 0,0 km/h (0 Bft) 100 %
02.05.2014 04:30 10,3 C 10,3 C 10,3 C 88 % 1009,3 hPa 0,0 l/m 0,0 km/h (0 Bft) N 0 0 min 0,000 mm 0 W/m 8,4 C 10,3 C 0,0 km/h (0 Bft) 100 %
02.05.2014 04:40 10,4 C 10,3 C 10,4 C 88 % 1009,3 hPa 0,0 l/m 0,0 km/h (0 Bft) N 0 0 min 0,000 mm 0 W/m 8,5 C 10,4 C 0,0 km/h (0 Bft) 100 %
02.05.2014 04:50 10,4 C 10,4 C 10,4 C 88 % 1009,3 hPa 0,0 l/m 0,0 km/h (0 Bft) N 0 0 min 0,000 mm 0 W/m 8,5 C 10,4 C 0,0 km/h (0 Bft) 88 %
02.05.2014 05:00 10,3 C 10,3 C 10,4 C 88 % 1009,2 hPa 0,0 l/m 0,0 km/h (0 Bft) N 0 0 min 0,000 mm 0 W/m 8,4 C 10,3 C 0,0 km/h (0 Bft) 100 %
02.05.2014 05:10 10,3 C 10,3 C 10,4 C 88 % 1009,3 hPa 0,4 l/m 0,0 km/h (0 Bft) S-SW 202 0 min 0,000 mm 0 W/m 8,4 C 10,3 C 1,6 km/h (1 Bft) 100 %
02.05.2014 05:20 10,3 C 10,3 C 10,3 C 88 % 1009,1 hPa 0,2 l/m 0,0 km/h (0 Bft) N 0 0 min 0,000 mm 0 W/m 8,4 C 10,3 C 0,0 km/h (0 Bft) 100 %
02.05.2014 05:30 10,3 C 10,3 C 10,3 C 88 % 1009,1 hPa 0,2 l/m 0,0 km/h (0 Bft) N 0 0 min 0,000 mm 0 W/m 8,4 C 10,3 C 0,0 km/h (0 Bft) 100 %
02.05.2014 05:40 10,3 C 10,3 C 10,3 C 88 % 1009,2 hPa 0,4 l/m 0,0 km/h (0 Bft) N 0 0 min 0,000 mm 0 W/m 8,4 C 10,3 C 0,0 km/h (0 Bft) 100 %
02.05.2014 05:50 10,2 C 10,2 C 10,3 C 88 % 1009,2 hPa 0,0 l/m 0,0 km/h (0 Bft) S-SW 202 0 min 0,000 mm 0 W/m 8,3 C 10,2 C 1,6 km/h (1 Bft) 100 %
02.05.2014 06:00 10,2 C 10,2 C 10,2 C 88 % 1009,2 hPa 0,0 l/m 0,0 km/h (0 Bft) N 0 0 min 0,000 mm 0 W/m 8,3 C 10,2 C 0,0 km/h (0 Bft) 100 %
02.05.2014 06:10 10,2 C 10,2 C 10,2 C 88 % 1009,4 hPa 0,0 l/m 0,0 km/h (0 Bft) N 0 0 min 0,000 mm 0 W/m 8,3 C 10,2 C 0,0 km/h (0 Bft) 100 %
02.05.2014 06:20 10,2 C 10,2 C 10,2 C 88 % 1009,5 hPa 0,0 l/m 0,0 km/h (0 Bft) N 0 0 min 0,000 mm 0 W/m 8,3 C 10,2 C 0,0 km/h (0 Bft) 100 %
02.05.2014 06:30 10,2 C 10,2 C 10,2 C 88 % 1009,7 hPa 0,0 l/m 0,0 km/h (0 Bft) N 0 0 min 0,000 mm 5 W/m 8,3 C 10,2 C 0,0 km/h (0 Bft) 100 %
02.05.2014 06:40 10,2 C 10,2 C 10,2 C 88 % 1009,5 hPa 0,0 l/m 0,0 km/h (0 Bft) N 0 0 min 0,000 mm 7 W/m 8,3 C 10,2 C 0,0 km/h (0 Bft) 100 %
02.05.2014 06:50 10,2 C 10,2 C 10,2 C 88 % 1009,5 hPa 0,0 l/m 0,0 km/h (0 Bft) N 0 0 min 0,000 mm 11 W/m 8,3 C 10,2 C 0,0 km/h (0 Bft) 100 %
02.05.2014 07:00 10,2 C 10,2 C 10,2 C 88 % 1009,7 hPa 0,0 l/m 0,0 km/h (0 Bft) N 0 0 min 0,000 mm 12 W/m 8,3 C 10,2 C 0,0 km/h (0 Bft) 100 %
02.05.2014 07:10 10,3 C 10,2 C 10,3 C 88 % 1009,7 hPa 0,0 l/m 0,0 km/h (0 Bft) N 0 0 min 0,000 mm 21 W/m 8,4 C 10,3 C 0,0 km/h (0 Bft) 100 %
02.05.2014 07:20 10,3 C 10,3 C 10,3 C 88 % 1009,8 hPa 0,0 l/m 0,0 km/h (0 Bft) S-SW 202 0 min 0,000 mm 33 W/m 8,4 C 10,3 C 1,6 km/h (1 Bft) 100 %
02.05.2014 07:30 10,4 C 10,3 C 10,4 C 88 % 1009,7 hPa 0,0 l/m 0,0 km/h (0 Bft) N 0 0 min 0,000 mm 53 W/m 8,5 C 10,4 C 0,0 km/h (0 Bft) 100 %
02.05.2014 07:40 10,5 C 10,3 C 10,5 C 88 % 1009,8 hPa 0,0 l/m 0,2 km/h (0 Bft) S-SW 206 0 min 0,000 mm 72 W/m 8,6 C 10,5 C 1,6 km/h (1 Bft) 100 %
02.05.2014 07:50 10,7 C 10,5 C 10,7 C 88 % 1010,0 hPa 0,0 l/m 0,1 km/h (0 Bft) S-SW 206 0 min 0,000 mm 74 W/m 8,8 C 10,7 C 1,6 km/h (1 Bft) 100 %
02.05.2014 08:00 10,8 C 10,7 C 10,8 C 88 % 1010,0 hPa 0,0 l/m 0,5 km/h (0 Bft) W-NW 302 0 min 0,000 mm 107 W/m 8,9 C 10,8 C 4,8 km/h (1 Bft) 100 %
02.05.2014 08:10 11,1 C 10,8 C 11,1 C 88 % 1010,1 hPa 0,0 l/m 0,0 km/h (0 Bft) W-SW 256 0 min 0,025 mm 107 W/m 9,2 C 11,1 C 1,6 km/h (1 Bft) 100 %
02.05.2014 08:20 11,1 C 11,1 C 11,1 C 88 % 1010,2 hPa 0,0 l/m 0,0 km/h (0 Bft) W-SW 256 0 min 0,000 mm 90 W/m 9,2 C 11,1 C 1,6 km/h (1 Bft) 100 %
02.05.2014 08:30 11,2 C 11,1 C 11,2 C 88 % 1010,3 hPa 0,0 l/m 0,4 km/h (0 Bft) W 279 0 min 0,000 mm 81 W/m 9,3 C 11,2 C 4,8 km/h (1 Bft) 100 %
02.05.2014 08:40 11,2 C 11,2 C 11,2 C 88 % 1010,4 hPa 0,0 l/m 0,1 km/h (0 Bft) W-NW 286 0 min 0,000 mm 118 W/m 9,3 C 11,2 C 3,2 km/h (1 Bft) 100 %
02.05.2014 08:50 11,3 C 11,2 C 11,3 C 88 % 1010,4 hPa 0,0 l/m 0,0 km/h (0 Bft) W 259 0 min 0,000 mm 111 W/m 9,4 C 11,3 C 1,6 km/h (1 Bft) 100 %
02.05.2014 09:00 11,4 C 11,3 C 11,4 C 88 % 1010,5 hPa 0,0 l/m 0,3 km/h (0 Bft) W-NW 302 0 min 0,000 mm 100 W/m 9,5 C 11,4 C 4,8 km/h (1 Bft) 100 %
02.05.2014 09:10 11,4 C 11,4 C 11,4 C 88 % 1010,5 hPa 0,0 l/m 0,4 km/h (0 Bft) W-NW 302 10 min 0,051 mm 155 W/m 9,5 C 11,4 C 4,8 km/h (1 Bft) 100 %
02.05.2014 09:20 11,5 C 11,4 C 11,5 C 88 % 1010,6 hPa 0,0 l/m 0,4 km/h (0 Bft) NW 305 0 min 0,000 mm 125 W/m 9,6 C 11,5 C 4,8 km/h (1 Bft) 100 %
02.05.2014 09:30 11,6 C 11,5 C 11,6 C 88 % 1010,6 hPa 0,0 l/m 0,5 km/h (0 Bft) NW 324 10 min 0,000 mm 163 W/m 9,7 C 11,6 C 6,4 km/h (2 Bft) 100 %
02.05.2014 09:40 11,8 C 11,6 C 11,8 C 88 % 1010,7 hPa 0,0 l/m 1,1 km/h (1 Bft) N-NW 331 0 min 0,000 mm 114 W/m 9,9 C 11,8 C 6,4 km/h (2 Bft) 100 %
02.05.2014 09:50 11,8 C 11,8 C 11,8 C 88 % 1010,7 hPa 0,0 l/m 1,3 km/h (1 Bft) NW 325 0 min 0,000 mm 88 W/m 9,9 C 11,8 C 6,4 km/h (2 Bft) 100 %
02.05.2014 10:00 11,6 C 11,6 C 11,8 C 88 % 1010,9 hPa 0,0 l/m 0,2 km/h (0 Bft) NW 325 0 min 0,051 mm 79 W/m 9,7 C 11,6 C 4,8 km/h (1 Bft) 100 %
02.05.2014 10:10 11,6 C 11,6 C 11,6 C 88 % 1011,0 hPa 0,0 l/m 0,8 km/h (0 Bft) N-NW 344 0 min 0,000 mm 102 W/m 9,7 C 11,6 C 6,4 km/h (2 Bft) 100 %
02.05.2014 10:20 11,7 C 11,6 C 11,7 C 88 % 1011,1 hPa 0,0 l/m 0,6 km/h (0 Bft) N-NW 347 0 min 0,000 mm 137 W/m 9,8 C 11,7 C 8,0 km/h (2 Bft) 100 %
02.05.2014 10:30 11,9 C 11,7 C 11,9 C 87 % 1011,2 hPa 0,0 l/m 0,8 km/h (0 Bft) N-NW 332 10 min 0,000 mm 220 W/m 9,8 C 11,9 C 8,0 km/h (2 Bft) 100 %
02.05.2014 10:40 12,1 C 11,9 C 12,1 C 87 % 1011,3 hPa 0,0 l/m 0,7 km/h (0 Bft) N-NW 329 10 min 0,000 mm 255 W/m 10,0 C 12,1 C 6,4 km/h (2 Bft) 100 %
02.05.2014 10:50 12,3 C 12,1 C 12,3 C 87 % 1011,5 hPa 0,0 l/m 0,5 km/h (0 Bft) N-NW 329 10 min 0,000 mm 186 W/m 10,2 C 12,3 C 4,8 km/h (1 Bft) 100 %
02.05.2014 11:00 12,4 C 12,3 C 12,4 C 88 % 1011,5 hPa 0,0 l/m 3,2 km/h (1 Bft) NW 319 10 min 0,000 mm 169 W/m 10,5 C 12,4 C 8,0 km/h (2 Bft) 100 %
02.05.2014 11:10 12,5 C 12,4 C 12,6 C 88 % 1011,7 hPa 0,0 l/m 0,4 km/h (0 Bft) NW 317 10 min 0,076 mm 179 W/m 10,6 C 12,5 C 6,4 km/h (2 Bft) 100 %
02.05.2014 11:20 12,4 C 12,4 C 12,6 C 88 % 1011,7 hPa 0,0 l/m 0,0 km/h (0 Bft) NW 317 10 min 0,000 mm 200 W/m 10,5 C 12,4 C 1,6 km/h (1 Bft) 100 %
02.05.2014 11:30 12,6 C 12,4 C 12,6 C 88 % 1011,8 hPa 0,0 l/m 1,0 km/h (0 Bft) NW 317 10 min 0,000 mm 225 W/m 10,7 C 12,6 C 4,8 km/h (1 Bft) 100 %
02.05.2014 11:40 12,7 C 12,6 C 12,7 C 88 % 1011,8 hPa 0,0 l/m 0,1 km/h (0 Bft) NW 317 10 min 0,000 mm 297 W/m 10,8 C 12,7 C 3,2 km/h (1 Bft) 100 %
02.05.2014 11:50 12,9 C 12,7 C 12,9 C 88 % 1011,8 hPa 0,0 l/m 1,7 km/h (1 Bft) N-NW 343 10 min 0,000 mm 367 W/m 11,0 C 12,9 C 8,0 km/h (2 Bft) 100 %
02.05.2014 12:00 13,4 C 12,9 C 13,4 C 88 % 1011,8 hPa 0,0 l/m 2,4 km/h (1 Bft) NW 323 10 min 0,127 mm 545 W/m 11,5 C 13,4 C 8,0 km/h (2 Bft) 100 %
02.05.2014 12:10 13,8 C 13,4 C 13,9 C 87 % 1011,9 hPa 0,0 l/m 2,2 km/h (1 Bft) NW 311 10 min 0,000 mm 473 W/m 11,7 C 13,8 C 9,7 km/h (2 Bft) 100 %
02.05.2014 12:20 14,3 C 13,8 C 14,3 C 86 % 1011,8 hPa 0,0 l/m 2,5 km/h (1 Bft) W-NW 290 10 min 0,000 mm 371 W/m 12,0 C 14,3 C 11,3 km/h (2 Bft) 100 %
02.05.2014 12:30 14,6 C 14,3 C 14,6 C 86 % 1011,8 hPa 0,0 l/m 2,9 km/h (1 Bft) N-NW 343 10 min 0,000 mm 471 W/m 12,3 C 14,6 C 9,7 km/h (2 Bft) 100 %
02.05.2014 12:40 15,1 C 14,6 C 15,1 C 84 % 1011,7 hPa 0,0 l/m 1,0 km/h (0 Bft) NW 319 10 min 0,000 mm 274 W/m 12,4 C 15,1 C 9,7 km/h (2 Bft) 100 %
02.05.2014 12:50 15,0 C 15,0 C 15,1 C 81 % 1011,7 hPa 0,0 l/m 1,9 km/h (1 Bft) NW 307 10 min 0,000 mm 346 W/m 11,8 C 15,0 C 14,5 km/h (3 Bft) 100 %
02.05.2014 13:00 15,3 C 15,0 C 15,3 C 81 % 1011,6 hPa 0,0 l/m 0,5 km/h (0 Bft) N-NW 340 10 min 0,229 mm 301 W/m 12,1 C 15,3 C 6,4 km/h (2 Bft) 100 %
02.05.2014 13:10 15,3 C 15,3 C 15,4 C 80 % 1011,7 hPa 0,0 l/m 0,2 km/h (0 Bft) N-NW 330 0 min 0,000 mm 95 W/m 11,9 C 15,3 C 4,8 km/h (1 Bft) 100 %
02.05.2014 13:20 15,0 C 15,0 C 15,3 C 81 % 1011,8 hPa 0,0 l/m 0,3 km/h (0 Bft) N-NO 18 10 min 0,000 mm 178 W/m 11,8 C 15,0 C 8,0 km/h (2 Bft) 100 %
02.05.2014 13:30 14,6 C 14,6 C 15,0 C 80 % 1011,8 hPa 0,0 l/m 0,0 km/h (0 Bft) N-NO 18 10 min 0,000 mm 265 W/m 11,2 C 14,6 C 1,6 km/h (1 Bft) 100 %
02.05.2014 13:40 14,6 C 14,6 C 14,6 C 81 % 1011,8 hPa 0,0 l/m 0,3 km/h (0 Bft) N-NW 331 10 min 0,000 mm 315 W/m 11,4 C 14,6 C 4,8 km/h (1 Bft) 100 %
02.05.2014 13:50 14,9 C 14,6 C 14,9 C 81 % 1011,7 hPa 0,0 l/m 0,1 km/h (0 Bft) N-NW 331 10 min 0,000 mm 434 W/m 11,7 C 14,9 C 1,6 km/h (1 Bft) 100 %
02.05.2014 14:00 15,7 C 14,9 C 15,7 C 77 % 1011,6 hPa 0,0 l/m 5,0 km/h (1 Bft) NW 319 10 min 0,178 mm 893 W/m 11,7 C 15,7 C 14,5 km/h (3 Bft) 99 %
02.05.2014 14:10 16,7 C 15,7 C 16,7 C 72 % 1011,5 hPa 0,0 l/m 7,0 km/h (2 Bft) W-NW 300 10 min 0,000 mm 425 W/m 11,6 C 16,4 C 19,3 km/h (3 Bft) 100 %
02.05.2014 14:20 17,1 C 16,7 C 17,1 C 73 % 1011,4 hPa 0,0 l/m 6,9 km/h (2 Bft) NW 310 10 min 0,000 mm 260 W/m 12,2 C 16,9 C 17,7 km/h (3 Bft) 100 %
02.05.2014 14:30 16,8 C 16,8 C 17,1 C 74 % 1011,3 hPa 0,0 l/m 5,5 km/h (1 Bft) NW 309 10 min 0,000 mm 229 W/m 12,1 C 16,8 C 12,9 km/h (3 Bft) 100 %
02.05.2014 14:40 16,8 C 16,8 C 16,9 C 71 % 1011,3 hPa 0,0 l/m 9,0 km/h (2 Bft) NW 312 0 min 0,000 mm 134 W/m 11,5 C 15,5 C 24,1 km/h (4 Bft) 100 %
02.05.2014 14:50 16,2 C 16,2 C 16,8 C 72 % 1011,4 hPa 0,0 l/m 5,4 km/h (1 Bft) NW 320 10 min 0,000 mm 165 W/m 11,1 C 16,2 C 20,9 km/h (4 Bft) 100 %
02.05.2014 15:00 15,5 C 15,5 C 16,2 C 74 % 1011,4 hPa 0,0 l/m 1,7 km/h (1 Bft) NW 314 10 min 0,228 mm 218 W/m 10,9 C 15,5 C 8,0 km/h (2 Bft) 100 %
02.05.2014 15:10 15,2 C 15,2 C 15,5 C 77 % 1011,3 hPa 0,0 l/m 1,7 km/h (1 Bft) NW 312 10 min 0,000 mm 294 W/m 11,2 C 15,2 C 9,7 km/h (2 Bft) 99 %
02.05.2014 15:20 15,5 C 15,2 C 15,5 C 79 % 1011,2 hPa 0,0 l/m 0,9 km/h (0 Bft) NW 312 10 min 0,000 mm 439 W/m 11,9 C 15,5 C 6,4 km/h (2 Bft) 98 %
02.05.2014 15:30 16,2 C 15,5 C 16,2 C 75 % 1011,2 hPa 0,0 l/m 0,3 km/h (0 Bft) NW 312 10 min 0,000 mm 821 W/m 11,8 C 16,2 C 6,4 km/h (2 Bft) 100 %
02.05.2014 15:40 16,7 C 16,2 C 16,7 C 69 % 1011,1 hPa 0,0 l/m 0,9 km/h (0 Bft) NW 313 10 min 0,000 mm 740 W/m 11,0 C 16,7 C 8,0 km/h (2 Bft) 100 %
02.05.2014 15:50 17,1 C 16,7 C 17,1 C 75 % 1011,1 hPa 0,0 l/m 1,8 km/h (1 Bft) SO 144 10 min 0,000 mm 227 W/m 12,6 C 17,1 C 8,0 km/h (2 Bft) 99 %
02.05.2014 16:00 17,0 C 16,9 C 17,2 C 74 % 1011,1 hPa 0,0 l/m 0,7 km/h (0 Bft) SO 128 10 min 0,229 mm 193 W/m 12,3 C 17,0 C 9,7 km/h (2 Bft) 99 %
02.05.2014 16:10 16,6 C 16,6 C 17,0 C 73 % 1011,0 hPa 0,0 l/m 4,2 km/h (1 Bft) S-SO 152 0 min 0,000 mm 120 W/m 11,7 C 16,6 C 9,7 km/h (2 Bft) 100 %
02.05.2014 16:20 16,0 C 16,0 C 16,6 C 77 % 1011,1 hPa 0,0 l/m 4,9 km/h (1 Bft) S-SO 150 10 min 0,000 mm 183 W/m 12,0 C 16,0 C 16,1 km/h (3 Bft) 100 %
02.05.2014 16:30 15,8 C 15,6 C 16,0 C 79 % 1011,0 hPa 0,0 l/m 6,7 km/h (2 Bft) S 182 10 min 0,000 mm 671 W/m 12,2 C 15,6 C 14,5 km/h (3 Bft) 100 %
02.05.2014 16:40 15,6 C 15,6 C 15,9 C 76 % 1011,1 hPa 0,0 l/m 8,7 km/h (2 Bft) S-SW 192 0 min 0,000 mm 121 W/m 11,4 C 14,4 C 16,1 km/h (3 Bft) 100 %
02.05.2014 16:50 15,3 C 15,3 C 15,6 C 78 % 1011,3 hPa 0,0 l/m 2,5 km/h (1 Bft) SO 141 0 min 0,000 mm 54 W/m 11,5 C 15,3 C 16,1 km/h (3 Bft) 100 %
02.05.2014 17:00 15,1 C 15,1 C 15,3 C 81 % 1011,4 hPa 0,0 l/m 1,8 km/h (1 Bft) O-NO 58 0 min 0,127 mm 23 W/m 11,9 C 15,1 C 9,7 km/h (2 Bft) 100 %
02.05.2014 17:10 14,5 C 14,5 C 15,1 C 80 % 1011,6 hPa 0,2 l/m 0,7 km/h (0 Bft) N-NW 338 0 min 0,000 mm 26 W/m 11,1 C 14,5 C 8,0 km/h (2 Bft) 100 %
02.05.2014 17:20 13,6 C 13,6 C 14,5 C 83 % 1011,3 hPa 0,2 l/m 0,8 km/h (0 Bft) NO 42 0 min 0,000 mm 44 W/m 10,8 C 13,6 C 8,0 km/h (2 Bft) 100 %
02.05.2014 17:30 13,0 C 13,0 C 13,6 C 84 % 1011,7 hPa 0,2 l/m 0,2 km/h (0 Bft) W-SW 238 0 min 0,000 mm 46 W/m 10,4 C 13,0 C 4,8 km/h (1 Bft) 100 %
02.05.2014 17:40 12,6 C 12,6 C 13,0 C 85 % 1011,9 hPa 0,0 l/m 0,0 km/h (0 Bft) W-SW 238 0 min 0,000 mm 42 W/m 10,1 C 12,6 C 1,6 km/h (1 Bft) 91 %
02.05.2014 17:50 12,1 C 12,1 C 12,6 C 86 % 1012,1 hPa 0,0 l/m 0,0 km/h (0 Bft) W-SW 238 0 min 0,000 mm 23 W/m 9,8 C 12,1 C 1,6 km/h (1 Bft) 100 %
02.05.2014 18:00 11,8 C 11,8 C 12,1 C 86 % 1012,2 hPa 0,2 l/m 0,0 km/h (0 Bft) W-SW 238 0 min 0,025 mm 19 W/m 9,5 C 11,8 C 1,6 km/h (1 Bft) 99 %
02.05.2014 18:10 11,7 C 11,7 C 11,8 C 87 % 1012,4 hPa 0,0 l/m 1,1 km/h (1 Bft) W 266 0 min 0,000 mm 14 W/m 9,6 C 11,7 C 4,8 km/h (1 Bft) 100 %
02.05.2014 18:20 11,5 C 11,5 C 11,7 C 87 % 1012,6 hPa 0,0 l/m 0,0 km/h (0 Bft) W 266 0 min 0,000 mm 35 W/m 9,4 C 11,5 C 1,6 km/h (1 Bft) 100 %
02.05.2014 18:30 11,6 C 11,5 C 11,6 C 87 % 1012,7 hPa 0,0 l/m 0,9 km/h (0 Bft) W 266 0 min 0,000 mm 42 W/m 9,5 C 11,6 C 3,2 km/h (1 Bft) 100 %
02.05.2014 18:40 11,5 C 11,5 C 11,6 C 87 % 1012,9 hPa 0,0 l/m 0,4 km/h (0 Bft) W 266 0 min 0,000 mm 56 W/m 9,4 C 11,5 C 4,8 km/h (1 Bft) 100 %
02.05.2014 18:50 11,5 C 11,5 C 11,5 C 87 % 1012,9 hPa 0,0 l/m 0,4 km/h (0 Bft) W 266 0 min 0,000 mm 53 W/m 9,4 C 11,5 C 4,8 km/h (1 Bft) 100 %
02.05.2014 19:00 11,6 C 11,5 C 11,6 C 87 % 1012,9 hPa 0,0 l/m 0,0 km/h (0 Bft) W 266 0 min 0,026 mm 44 W/m 9,5 C 11,6 C 1,6 km/h (1 Bft) 100 %
02.05.2014 19:10 11,7 C 11,6 C 11,7 C 87 % 1013,1 hPa 0,0 l/m 0,0 km/h (0 Bft) W 266 0 min 0,000 mm 26 W/m 9,6 C 11,7 C 0,0 km/h (0 Bft) 100 %
02.05.2014 19:20 11,7 C 11,7 C 11,7 C 87 % 1013,2 hPa 0,0 l/m 0,0 km/h (0 Bft) W 266 0 min 0,000 mm 21 W/m 9,6 C 11,7 C 0,0 km/h (0 Bft) 100 %
02.05.2014 19:30 11,7 C 11,7 C 11,7 C 87 % 1013,3 hPa 0,2 l/m 0,0 km/h (0 Bft) W 266 0 min 0,000 mm 7 W/m 9,6 C 11,7 C 1,6 km/h (1 Bft) 100 %
02.05.2014 19:40 11,7 C 11,7 C 11,7 C 87 % 1013,4 hPa 0,0 l/m 0,0 km/h (0 Bft) W 266 0 min 0,000 mm 0 W/m 9,6 C 11,7 C 1,6 km/h (1 Bft) 100 %
02.05.2014 19:50 11,7 C 11,7 C 11,7 C 87 % 1013,6 hPa 0,2 l/m 0,6 km/h (0 Bft) W-NW 291 0 min 0,000 mm 0 W/m 9,6 C 11,7 C 6,4 km/h (2 Bft) 100 %
02.05.2014 20:00 11,6 C 11,6 C 11,7 C 87 % 1013,7 hPa 0,2 l/m 0,0 km/h (0 Bft) W-NW 291 0 min 0,000 mm 0 W/m 9,5 C 11,6 C 1,6 km/h (1 Bft) 100 %
02.05.2014 20:10 11,5 C 11,5 C 11,6 C 87 % 1014,1 hPa 0,2 l/m 0,2 km/h (0 Bft) W-NW 291 0 min 0,000 mm 0 W/m 9,4 C 11,5 C 1,6 km/h (1 Bft) 100 %
02.05.2014 20:20 11,3 C 11,3 C 11,5 C 87 % 1014,1 hPa 0,0 l/m 0,3 km/h (0 Bft) NW 312 0 min 0,000 mm 0 W/m 9,2 C 11,3 C 4,8 km/h (1 Bft) 99 %
02.05.2014 20:30 11,1 C 11,1 C 11,3 C 87 % 1014,2 hPa 0,0 l/m 0,1 km/h (0 Bft) NW 325 0 min 0,000 mm 0 W/m 9,0 C 11,1 C 3,2 km/h (1 Bft) 100 %
02.05.2014 20:40 10,9 C 10,9 C 11,1 C 88 % 1014,3 hPa 0,0 l/m 0,5 km/h (0 Bft) S 189 0 min 0,000 mm 0 W/m 9,0 C 10,9 C 6,4 km/h (2 Bft) 100 %
02.05.2014 20:50 10,8 C 10,8 C 10,9 C 88 % 1014,4 hPa 0,2 l/m 0,2 km/h (0 Bft) SW 219 0 min 0,000 mm 0 W/m 8,9 C 10,8 C 3,2 km/h (1 Bft) 100 %
02.05.2014 21:00 10,7 C 10,7 C 10,8 C 87 % 1014,7 hPa 0,0 l/m 0,1 km/h (0 Bft) SW 219 0 min 0,000 mm 0 W/m 8,6 C 10,7 C 1,6 km/h (1 Bft) 100 %
02.05.2014 21:10 10,6 C 10,5 C 10,7 C 88 % 1014,8 hPa 0,0 l/m 0,0 km/h (0 Bft) SW 225 0 min 0,000 mm 0 W/m 8,7 C 10,6 C 4,8 km/h (1 Bft) 96 %
02.05.2014 21:20 10,4 C 10,4 C 10,5 C 87 % 1014,9 hPa 0,0 l/m 0,0 km/h (0 Bft) SW 225 0 min 0,000 mm 0 W/m 8,3 C 10,4 C 1,6 km/h (1 Bft) 98 %
02.05.2014 21:30 10,3 C 10,3 C 10,4 C 87 % 1015,1 hPa 0,0 l/m 0,0 km/h (0 Bft) SW 225 0 min 0,000 mm 0 W/m 8,2 C 10,3 C 3,2 km/h (1 Bft) 97 %
02.05.2014 21:40 10,1 C 10,1 C 10,3 C 88 % 1015,3 hPa 0,0 l/m 0,0 km/h (0 Bft) N 360 0 min 0,000 mm 0 W/m 8,2 C 10,1 C 3,2 km/h (1 Bft) 98 %
02.05.2014 21:50 9,8 C 9,8 C 10,3 C 88 % 1015,3 hPa 0,0 l/m 0,0 km/h (0 Bft) W 260 0 min 0,000 mm 0 W/m 7,9 C 9,8 C 0,0 km/h (0 Bft) 100 %
02.05.2014 22:10 9,5 C 9,5 C 9,8 C 88 % 1015,8 hPa 0,0 l/m 0,2 km/h (0 Bft) N-NW 342 0 min 0,000 mm 0 W/m 7,6 C 9,5 C 6,4 km/h (2 Bft) 99 %
02.05.2014 22:20 9,3 C 9,3 C 9,5 C 88 % 1016,1 hPa 0,0 l/m 0,2 km/h (0 Bft) N-NO 24 0 min 0,000 mm 0 W/m 7,4 C 9,3 C 4,8 km/h (1 Bft) 100 %
02.05.2014 22:30 9,1 C 9,1 C 9,3 C 88 % 1016,3 hPa 0,0 l/m 0,0 km/h (0 Bft) NO 45 0 min 0,000 mm 0 W/m 7,2 C 9,1 C 4,8 km/h (1 Bft) 88 %
02.05.2014 22:40 9,0 C 9,0 C 9,1 C 88 % 1016,3 hPa 0,0 l/m 0,0 km/h (0 Bft) NO 45 0 min 0,000 mm 0 W/m 7,1 C 9,0 C 1,6 km/h (1 Bft) 97 %
02.05.2014 22:50 8,8 C 8,8 C 9,0 C 88 % 1016,5 hPa 0,0 l/m 0,0 km/h (0 Bft) NO 45 0 min 0,000 mm 0 W/m 6,9 C 8,8 C 8,0 km/h (2 Bft) 97 %
02.05.2014 23:00 8,6 C 8,5 C 8,8 C 88 % 1016,7 hPa 0,0 l/m 0,0 km/h (0 Bft) N-NO 22 0 min 0,000 mm 0 W/m 6,7 C 8,6 C 8,0 km/h (2 Bft) 97 %
02.05.2014 23:10 8,3 C 8,3 C 8,5 C 88 % 1016,7 hPa 0,0 l/m 0,0 km/h (0 Bft) N-NW 337 0 min 0,000 mm 0 W/m 6,4 C 8,3 C 3,2 km/h (1 Bft) 98 %
02.05.2014 23:20 8,1 C 8,1 C 8,3 C 88 % 1016,7 hPa 0,0 l/m 0,0 km/h (0 Bft) SW 225 0 min 0,000 mm 0 W/m 6,2 C 8,1 C 4,8 km/h (1 Bft) 97 %
02.05.2014 23:30 7,9 C 7,9 C 8,1 C 88 % 1016,6 hPa 0,0 l/m 0,0 km/h (0 Bft) SW 225 0 min 0,000 mm 0 W/m 6,0 C 7,9 C 3,2 km/h (1 Bft) 97 %
02.05.2014 23:40 7,8 C 7,8 C 7,9 C 88 % 1016,7 hPa 0,0 l/m 0,0 km/h (0 Bft) SW 225 0 min 0,000 mm 0 W/m 5,9 C 7,8 C 4,8 km/h (1 Bft) 98 %
02.05.2014 23:50 7,7 C 7,7 C 7,8 C 88 % 1016,8 hPa 0,0 l/m 0,0 km/h (0 Bft) SW 225 0 min 0,000 mm 0 W/m 5,8 C 7,7 C 3,2 km/h (1 Bft) 97 %
_ Min-Zeit 23:50 23:50 23:50 15:40 05:20 - 00:00 - - - - - 23:50 23:50 00:00 00:10
Minimum _ 7,7 C 7,7 C 7,8 C 69 % 1009,1 hPa - 0,0 km/h (0 Bft) - - - - - 5,8 C 7,7 C 0,0 km/h (0 Bft) 80 %
_ Max-Zeit 16:00 16:00 16:00 00:50 23:50 05:10 14:40 - - 09:10 13:00 14:00 15:50 15:50 14:40 00:00
Maximum _ 17,2 C 16,9 C 17,2 C 88 % 1016,8 hPa 0,4 l/m 9,0 km/h
NW (2 Bft)
- - 10 min 0,229 mm 893 W/m 12,6 C 17,1 C 24,1 km/h
NW (4 Bft)
100 %
Durchschnitt _ 11,8 C 11,7 C 11,9 C 85 % 1011,5 hPa #3,0 l/m 0,8 km/h (0 Bft) NW - #6:00 h #1,372 mm 188 W/m 9,4 C 11,8 C 4,3 km/h (1 Bft) 99 %
PRIVATE WETTERSTATION BILLIGHEIM-ALLFELD - www.neckar-odenwald-wetter.de - Holger Sonntag